Location: Ku?niki
(51.4449°N, 17.8974°E)
Time: 17:55:54
(UTC+00:00)

Cosmos 1025 Rocket - Pass Details

Date: 18 September 2020
Orbit: 595 x 617 km, 82.5° (Epoch: 20 October)

Event Time Altitude Azimuth Distance (km) Brightness Sun altitude
Rises 18:45:00 0° 345° (NNW) 2,885 7.1 -17.3°
Reaches altitude 10° 18:47:15 10° 341° (NNW) 1,979 6.3 -17.6°
Maximum altitude 18:51:32 54° 265° (W) 754 3.8 -18.2°
Drops below altitude 10° 18:55:47 10° 189° (S) 1,974 5.4 -18.8°
Enters shadow 18:56:09 - 188° (S) 2,116 5.6 -18.9°
